Location: Chumphon
(10.5000°N, 99.1670°E)
Time: 06:23:16
(UTC+07:00)

ISS - Visible Passes

Search period start: 14 November 2018 00:00
Search period end: 24 November 2018 00:00
Orbit: 402 x 409 km, 51.6° (Epoch: 14 November)

Date Brightness Start Highest point End Pass type
(mag) Time Alt. Az. Time Alt. Az. Time Alt. Az.
17 Nov -2.8 19:29:03 10° SW 19:31:24 44° SW 19:31:24 44° SW visible
18 Nov -1.2 05:23:04 10° N 05:25:21 17° NE 05:27:38 10° E visible
18 Nov -2.9 18:37:19 10° S 18:40:17 33° SE 18:42:09 18° ENE visible
19 Nov -1.6 19:22:06 10° W 19:24:32 19° NW 19:25:34 17° NNW visible
20 Nov -3.6 05:15:59 27° NNW 05:17:35 69° NE 05:20:51 10° SE visible
20 Nov -3.1 18:29:16 10° SW 18:32:27 52° NW 18:35:37 10° NNE visible
21 Nov -1.2 04:26:41 19° E 04:26:41 19° E 04:28:13 10° ESE visible
22 Nov -2.5 05:10:05 25° SW 05:10:05 25° SW 05:12:30 10° S visible
22 Nov -1.1 18:22:48 10° W 18:24:39 14° NW 18:26:29 10° NNW visible
23 Nov -0.6 04:20:43 11° SSE 04:20:43 11° SSE 04:20:54 10° SSE visible
